User: anonymous   Login
Location: Vancouver
(49.2500°N, 123.1330°W)
Time: 23:47:19
(UTC-07:00)
Language:

ERS-2 - Orbit

View from above orbital plane
View from above orbital plane
View from above satellite
View from above satellite

Ground track
Ground track

The orbit data is extracted from the following two-line orbital elements,

1 23560U 95021A   17087.94706546 +.00003146 +00000-0 +14841-3 0  9992
2 23560 098.5507 069.5401 0003025 196.9753 163.1379 15.20384231163163
Epoch (UTC): 28 March 2017 22:43:46
Eccentricity: 0.0003025
inclination: 98.5507°
perigee height: 502 km
apogee height: 507 km
right ascension of ascending node: 69.5401°
argument of perigee: 196.9753°
revolutions per day: 15.20384231
mean anomaly at epoch: 163.1379°
orbit number at epoch: 16316

The dashed part of the orbit path shows where the satellite is in the earth's shadow,  

DLR